Weather History for Elkins, WV

Change the Weather History Date:

Thursday, September 13, 2012

  Actual Average Record
Temperature  
Mean Temperature 65 °F 63 °F  
Max Temperature 81 °F 75 °F 92 °F (1952)
Min Temperature 49 °F 52 °F 33 °F (1985)
Degree Days  
Heating Degree Days 0 3  
Month to date heating degree days 26 28  
Since 1 July heating degree days 27 58  
Cooling Degree Days 0 2  
Month to date cooling degree days 74 31  
Year to date cooling degree days 663 457  
Growing Degree Days 14 (Base 50)    
Moisture  
Dew Point 52 °F    
Average Humidity 73    
Maximum Humidity 100    
Minimum Humidity 45    
Precipitation  
Precipitation 0.00 in 0.13 in 1.21 in (1947)
Month to date precipitation 2.80 1.57  
Year to date precipitation 34.61 34.38  
Snow  
Snow 0.00 in - - ()
Month to date snowfall 0.0  
Since 1 September snowfall 0.0  
Snow Depth 0.00 in    
Sea Level Pressure  
Sea Level Pressure 30.36 in    
Wind  
Wind Speed 1 mph (North)    
Max Wind Speed 9 mph    
Max Gust Speed 14 mph    
Visibility 4 miles    
Events Fog    
T = Trace of Precipitation, MM = Missing Value Source: NWS Daily Summary

Daily Weather History Graph

Daily Weather History Graph

Search for Another Location

Airport:

Trip Planner

Search our weather history database for the weather conditions in past years. The results will help you decide how hot, cold, wet, or windy it might be!

Date:

Astronomy

Sep. 13, 2012 Rise Set
Actual Time 6:59 AM EDT 7:30 PM EDT
Civil Twilight 6:32 AM EDT 7:56 PM EDT
Nautical Twilight 6:01 AM EDT 8:28 PM EDT
Astronomical Twilight 5:28 AM EDT 9:00 PM EDT
Moon 4:18 AM EDT (9/13) 5:51 PM EDT (9/13)
Length of Visible Light 13h 24m
Length of Day
12h 30m
Waning Crescent, 7% of the Moon is Illuminated
Sep 13
Waning Crescent
Sep 15
New
Sep 22
First Quarter
Sep 29
Full
Oct 8
Last Quarter

Hourly Weather History & Observations

Time (EDT) Temp. Heat Index Dew Point Humidity Pressure Visibility Wind Dir Wind Speed Gust Speed Precip Events Conditions
12:29 AM 53.6 °F - 51.8 °F 94% 30.37 in 1.2 mi Calm Calm - N/A   Clear
12:37 AM 53.6 °F - 53.6 °F 100% 30.37 in 0.8 mi Calm Calm - N/A   Clear
12:41 AM 55.4 °F - 51.8 °F 88% 30.37 in 2.0 mi Calm Calm - N/A   Clear
12:48 AM 53.6 °F - 51.8 °F 94% 30.37 in 6.0 mi Calm Calm - N/A   Clear
12:51 AM 54.0 °F - 52.0 °F 93% 30.37 in 6.0 mi Calm Calm - N/A   Clear
1:21 AM 51.8 °F - 51.8 °F 100% 30.37 in 1.8 mi Calm Calm - N/A   Clear
1:28 AM 53.6 °F - 51.8 °F 94% 30.37 in 3.0 mi Calm Calm - N/A   Clear
1:31 AM 51.8 °F - 51.8 °F 100% 30.37 in 1.8 mi Calm Calm - N/A   Clear
1:34 AM 53.6 °F - 51.8 °F 94% 30.37 in 1.0 mi Calm Calm - N/A   Mist
1:41 AM 51.8 °F - 51.8 °F 100% 30.37 in 0.5 mi Calm Calm - N/A Fog Fog
1:51 AM 52.0 °F - 51.1 °F 97% 30.36 in 1.2 mi Calm Calm - N/A   Mostly Cloudy
2:04 AM 51.8 °F - 50.0 °F 94% 30.37 in 2.5 mi Calm Calm - N/A   Scattered Clouds
2:11 AM 51.8 °F - 50.0 °F 94% 30.37 in 5.0 mi Calm Calm - N/A   Partly Cloudy
2:43 AM 51.8 °F - 50.0 °F 94% 30.37 in 1.0 mi Calm Calm - N/A   Mist
2:51 AM 51.1 °F - 48.9 °F 92% 30.37 in 1.0 mi Calm Calm - N/A   Mist
2:58 AM 50.0 °F - 48.2 °F 94% 30.37 in 1.5 mi Calm Calm - N/A   Partly Cloudy
3:05 AM 50.0 °F - 48.2 °F 94% 30.37 in 3.0 mi Calm Calm - N/A   Partly Cloudy
3:28 AM 50.0 °F - 48.2 °F 94% 30.37 in 2.0 mi Calm Calm - N/A   Partly Cloudy
3:33 AM 50.0 °F - 48.2 °F 94% 30.37 in 1.0 mi Calm Calm - N/A   Mist
3:39 AM 48.2 °F - 48.2 °F 100% 30.37 in 0.2 mi Calm Calm - N/A Fog Fog
3:51 AM 50.0 °F - 48.9 °F 96% 30.36 in 0.2 mi Calm Calm - N/A Fog Fog
4:22 AM 50.0 °F - 48.2 °F 94% 30.37 in 0.8 mi Calm Calm - N/A   Mist
4:51 AM 50.0 °F - 48.0 °F 93% 30.36 in 1.0 mi Calm Calm - N/A   Overcast
5:01 AM 50.0 °F - 48.2 °F 94% 30.37 in 0.2 mi Calm Calm - N/A Fog Fog
5:48 AM 50.0 °F - 48.2 °F 94% 30.38 in 0.5 mi Calm Calm - N/A Fog Fog
5:51 AM 50.0 °F - 48.9 °F 96% 30.38 in 0.5 mi Calm Calm - N/A Fog Fog
6:01 AM 50.0 °F - 48.2 °F 94% 30.38 in 0.2 mi Calm Calm - N/A Fog Fog
6:42 AM 50.0 °F - 48.2 °F 94% 30.39 in 0.5 mi Calm Calm - N/A Fog Fog
6:51 AM 48.9 °F - 48.0 °F 97% 30.40 in 0.5 mi Calm Calm - N/A Fog Fog
7:06 AM 48.2 °F - 48.2 °F 100% 30.40 in 0.2 mi Calm Calm - N/A Fog Fog
7:40 AM 50.0 °F - 48.2 °F 94% 30.41 in 0.8 mi Calm Calm - N/A   Overcast
7:51 AM 50.0 °F - 48.9 °F 96% 30.42 in 0.2 mi Calm Calm - N/A Fog Fog
8:51 AM 52.0 °F - 51.1 °F 97% 30.43 in 0.8 mi Calm Calm - N/A   Overcast
8:58 AM 51.8 °F - 51.8 °F 100% 30.42 in 2.0 mi Calm Calm - N/A   Overcast
9:08 AM 51.8 °F - 51.8 °F 100% 30.42 in 5.0 mi Calm Calm - N/A   Overcast
9:21 AM 53.6 °F - 53.6 °F 100% 30.43 in 7.0 mi Calm Calm - N/A   Overcast
9:51 AM 57.9 °F - 54.0 °F 87% 30.43 in 10.0 mi Calm Calm - N/A   Partly Cloudy
10:51 AM 64.9 °F - 55.0 °F 70% 30.41 in 10.0 mi Calm Calm - N/A   Clear
11:51 AM 72.0 °F - 57.0 °F 59% 30.40 in 10.0 mi Calm Calm - N/A   Clear
12:51 PM 75.9 °F - 57.0 °F 52% 30.37 in 10.0 mi North 8.1 mph - 0.01 in   Clear
1:51 PM 78.1 °F - 55.9 °F 46% 30.34 in 10.0 mi North 8.1 mph - N/A   Clear
2:51 PM 78.1 °F - 57.0 °F 48% 30.31 in 10.0 mi Calm Calm - N/A   Clear
3:51 PM 80.1 °F 80.6 °F 57.9 °F 47% 30.29 in 10.0 mi North 4.6 mph - N/A   Clear
4:51 PM 79.0 °F - 57.0 °F 47% 30.28 in 10.0 mi North 4.6 mph - N/A   Clear
5:51 PM 77.0 °F - 59.0 °F 54% 30.28 in 10.0 mi North 3.5 mph - N/A   Clear
6:51 PM 70.0 °F - 62.1 °F 76% 30.29 in 10.0 mi Calm Calm - N/A   Clear
7:51 PM 63.0 °F - 57.9 °F 84% 30.30 in 10.0 mi East 3.5 mph - N/A   Clear
8:51 PM 62.1 °F - 55.9 °F 80% 30.31 in 10.0 mi Calm Calm - N/A   Clear
9:51 PM 57.0 °F - 55.0 °F 93% 30.32 in 10.0 mi Calm Calm - N/A   Clear
10:51 PM 55.9 °F - 54.0 °F 93% 30.32 in 8.0 mi Calm Calm - N/A   Clear
11:51 PM 55.0 °F - 53.1 °F 93% 30.32 in 10.0 mi Calm Calm - N/A   Clear